Time,TemperatureF,DewpointF,PressureIn,WindDirection,WindDirectionDegrees,WindSpeedMPH,WindSpeedGustMPH,Humidity,HourlyPrecipIn,Conditions,Clouds,dailyrainin,SoftwareType,DateUTC
2013-01-11 00:22:00,46.0,29.0,30.13,West,280,16.0,-999.0,52,0.00,,,-99.99,,2013-01-11 08:22:00,
2013-01-11 00:32:00,46.0,29.0,30.13,West,280,16.0,-999.0,52,0.00,,,-99.99,,2013-01-11 08:32:00,
2013-01-11 00:42:00,46.0,29.0,30.13,West,280,16.0,-999.0,52,0.00,,,-99.99,,2013-01-11 08:42:00,
2013-01-11 00:50:00,46.0,31.0,30.14,WNW,290,9.0,-999.0,55,0.00,,,-99.99,,2013-01-11 08:50:00,
2013-01-11 01:22:00,46.0,31.0,30.14,WNW,290,9.0,-999.0,55,0.00,,,-99.99,,2013-01-11 09:22:00,
2013-01-11 01:32:00,46.0,31.0,30.14,WNW,290,9.0,-999.0,55,0.00,,,-99.99,,2013-01-11 09:32:00,
2013-01-11 01:42:00,46.0,31.0,30.14,WNW,290,9.0,-999.0,55,0.00,,,-99.99,,2013-01-11 09:42:00,
2013-01-11 02:22:00,45.0,30.0,30.16,WNW,290,6.0,-999.0,56,0.00,,,-99.99,,2013-01-11 10:22:00,
2013-01-11 02:32:00,45.0,30.0,30.16,WNW,290,6.0,-999.0,56,0.00,,,-99.99,,2013-01-11 10:32:00,
2013-01-11 02:42:00,45.0,30.0,30.16,WNW,290,6.0,-999.0,56,0.00,,,-99.99,,2013-01-11 10:42:00,
2013-01-11 03:22:00,45.0,28.0,30.17,NW,320,7.0,-999.0,52,0.00,,,-99.99,,2013-01-11 11:22:00,
2013-01-11 03:32:00,45.0,28.0,30.17,NW,320,7.0,-999.0,52,0.00,,,-99.99,,2013-01-11 11:32:00,
2013-01-11 03:42:00,45.0,28.0,30.17,NW,320,7.0,-999.0,52,0.00,,,-99.99,,2013-01-11 11:42:00,
2013-01-11 04:22:00,43.0,28.0,30.18,West,280,3.0,-999.0,55,0.00,,,-99.99,,2013-01-11 12:22:00,
2013-01-11 04:32:00,43.0,28.0,30.18,West,280,3.0,-999.0,55,0.00,,,-99.99,,2013-01-11 12:32:00,
2013-01-11 04:42:00,43.0,28.0,30.18,West,280,3.0,-999.0,55,0.00,,,-99.99,,2013-01-11 12:42:00,
2013-01-11 05:22:00,41.0,28.0,30.19,North,10,4.0,-999.0,60,0.00,,,-99.99,,2013-01-11 13:22:00,
2013-01-11 05:33:00,41.0,28.0,30.19,North,10,4.0,-999.0,60,0.00,,,-99.99,,2013-01-11 13:33:00,
2013-01-11 05:42:00,41.0,28.0,30.19,North,10,4.0,-999.0,60,0.00,,,-99.99,,2013-01-11 13:42:00,
2013-01-11 06:22:00,39.0,28.0,30.21,North,0,0.0,-999.0,65,0.00,,,-99.99,,2013-01-11 14:22:00,
2013-01-11 06:33:00,39.0,28.0,30.21,North,0,0.0,-999.0,65,0.00,,,-99.99,,2013-01-11 14:33:00,
2013-01-11 06:42:00,39.0,28.0,30.21,North,0,0.0,-999.0,65,0.00,,,-99.99,,2013-01-11 14:42:00,
2013-01-11 07:23:00,38.0,28.0,30.22,East,80,1.0,-999.0,66,0.00,,,-99.99,,2013-01-11 15:23:00,
2013-01-11 07:32:00,38.0,28.0,30.22,East,80,1.0,-999.0,66,0.00,,,-99.99,,2013-01-11 15:32:00,
2013-01-11 07:42:00,38.0,28.0,30.22,East,80,1.0,-999.0,66,0.00,,,-99.99,,2013-01-11 15:42:00,
2013-01-11 08:22:00,40.0,28.0,30.23,ENE,70,3.0,-999.0,62,0.00,,,-99.99,,2013-01-11 16:22:00,
2013-01-11 08:32:00,40.0,28.0,30.23,ENE,70,3.0,-999.0,62,0.00,,,-99.99,,2013-01-11 16:32:00,
2013-01-11 08:42:00,40.0,28.0,30.23,ENE,70,3.0,-999.0,62,0.00,,,-99.99,,2013-01-11 16:42:00,
2013-01-11 09:22:00,45.0,29.0,30.24,North,0,0.0,-999.0,54,0.00,,,-99.99,,2013-01-11 17:22:00,
2013-01-11 09:33:00,45.0,29.0,30.24,North,0,0.0,-999.0,54,0.00,,,-99.99,,2013-01-11 17:33:00,
2013-01-11 09:43:00,45.0,29.0,30.24,North,0,0.0,-999.0,54,0.00,,,-99.99,,2013-01-11 17:43:00,
2013-01-11 10:23:00,49.0,29.0,30.23,North,0,0.0,-999.0,45,0.00,,,-99.99,,2013-01-11 18:23:00,
2013-01-11 10:32:00,49.0,29.0,30.23,North,0,0.0,-999.0,45,0.00,,,-99.99,,2013-01-11 18:32:00,
2013-01-11 10:43:00,49.0,29.0,30.23,North,0,0.0,-999.0,45,0.00,,,-99.99,,2013-01-11 18:43:00,
2013-01-11 11:22:00,52.0,26.0,30.21,WNW,290,8.0,-999.0,36,0.00,,,-99.99,,2013-01-11 19:22:00,
2013-01-11 11:32:00,52.0,26.0,30.21,WNW,290,8.0,-999.0,36,0.00,,,-99.99,,2013-01-11 19:32:00,
2013-01-11 11:42:00,52.0,26.0,30.21,WNW,290,8.0,-999.0,36,0.00,,,-99.99,,2013-01-11 19:42:00,
2013-01-11 12:22:00,52.0,25.0,30.17,WNW,290,17.0,-999.0,34,0.00,,,-99.99,,2013-01-11 20:22:00,
2013-01-11 12:33:00,52.0,25.0,30.17,WNW,290,17.0,-999.0,34,0.00,,,-99.99,,2013-01-11 20:33:00,
2013-01-11 12:43:00,52.0,25.0,30.17,WNW,290,17.0,-999.0,34,0.00,,,-99.99,,2013-01-11 20:43:00,
2013-01-11 13:23:00,54.0,25.0,30.13,WNW,300,15.0,-999.0,32,0.00,,,-99.99,,2013-01-11 21:23:00,
2013-01-11 13:32:00,54.0,25.0,30.13,WNW,300,15.0,-999.0,32,0.00,,,-99.99,,2013-01-11 21:32:00,
2013-01-11 13:42:00,54.0,25.0,30.13,WNW,300,15.0,-999.0,32,0.00,,,-99.99,,2013-01-11 21:42:00,
2013-01-11 14:22:00,55.0,26.0,30.12,WNW,290,17.0,-999.0,32,0.00,,,-99.99,,2013-01-11 22:22:00,
2013-01-11 14:33:00,55.0,26.0,30.12,WNW,290,17.0,-999.0,32,0.00,,,-99.99,,2013-01-11 22:33:00,
2013-01-11 14:42:00,55.0,26.0,30.12,WNW,290,17.0,-999.0,32,0.00,,,-99.99,,2013-01-11 22:42:00,
2013-01-11 15:22:00,54.0,24.0,30.11,NW,310,16.0,-999.0,31,0.00,,,-99.99,,2013-01-11 23:22:00,
2013-01-11 15:32:00,54.0,24.0,30.11,NW,310,16.0,-999.0,31,0.00,,,-99.99,,2013-01-11 23:32:00,
2013-01-11 15:42:00,54.0,24.0,30.11,NW,310,16.0,-999.0,31,0.00,,,-99.99,,2013-01-11 23:42:00,
2013-01-11 16:22:00,54.0,27.0,30.10,West,280,18.0,-999.0,35,0.00,,,-99.99,,2013-01-12 00:22:00,
2013-01-11 16:32:00,54.0,27.0,30.10,West,280,18.0,-999.0,35,0.00,,,-99.99,,2013-01-12 00:32:00,
2013-01-11 16:42:00,54.0,27.0,30.10,West,280,18.0,-999.0,35,0.00,,,-99.99,,2013-01-12 00:42:00,
2013-01-11 17:22:00,52.0,28.0,30.10,West,270,21.0,-999.0,40,0.00,,,-99.99,,2013-01-12 01:22:00,
2013-01-11 17:32:00,52.0,28.0,30.10,West,270,21.0,-999.0,40,0.00,,,-99.99,,2013-01-12 01:32:00,
2013-01-11 17:42:00,52.0,28.0,30.10,West,270,21.0,-999.0,40,0.00,,,-99.99,,2013-01-12 01:42:00,
2013-01-11 18:22:00,50.0,30.0,30.11,WNW,290,7.0,-999.0,46,0.00,,,-99.99,,2013-01-12 02:22:00,
2013-01-11 18:32:00,50.0,30.0,30.11,WNW,290,7.0,-999.0,46,0.00,,,-99.99,,2013-01-12 02:32:00,
2013-01-11 18:42:00,50.0,30.0,30.11,WNW,290,7.0,-999.0,46,0.00,,,-99.99,,2013-01-12 02:42:00,
2013-01-11 19:22:00,50.0,26.0,30.11,WNW,300,6.0,-999.0,39,0.00,,,-99.99,,2013-01-12 03:22:00,
2013-01-11 19:32:00,50.0,26.0,30.11,WNW,300,6.0,-999.0,39,0.00,,,-99.99,,2013-01-12 03:32:00,
2013-01-11 19:42:00,50.0,26.0,30.11,WNW,300,6.0,-999.0,39,0.00,,,-99.99,,2013-01-12 03:42:00,
2013-01-11 20:22:00,49.0,25.0,30.11,NNW,330,14.0,-999.0,38,0.00,,,-99.99,,2013-01-12 04:22:00,
2013-01-11 20:32:00,49.0,25.0,30.11,NNW,330,14.0,-999.0,38,0.00,,,-99.99,,2013-01-12 04:32:00,
2013-01-11 20:42:00,49.0,25.0,30.11,NNW,330,14.0,-999.0,38,0.00,,,-99.99,,2013-01-12 04:42:00,
2013-01-11 21:22:00,47.0,25.0,30.12,NNW,330,12.0,-999.0,41,0.00,,,-99.99,,2013-01-12 05:22:00,
2013-01-11 21:32:00,47.0,25.0,30.12,NNW,330,12.0,-999.0,41,0.00,,,-99.99,,2013-01-12 05:32:00,
2013-01-11 21:42:00,47.0,25.0,30.12,NNW,330,12.0,-999.0,41,0.00,,,-99.99,,2013-01-12 05:42:00,
2013-01-11 22:22:00,47.0,25.0,30.13,North,350,5.0,-999.0,41,0.00,,,-99.99,,2013-01-12 06:22:00,
2013-01-11 22:32:00,47.0,25.0,30.13,North,350,5.0,-999.0,41,0.00,,,-99.99,,2013-01-12 06:32:00,
2013-01-11 22:42:00,47.0,25.0,30.13,North,350,5.0,-999.0,41,0.00,,,-99.99,,2013-01-12 06:42:00,
2013-01-11 23:22:00,45.0,25.0,30.14,NNW,340,4.0,-999.0,46,0.00,,,-99.99,,2013-01-12 07:22:00,
2013-01-11 23:32:00,45.0,25.0,30.14,NNW,340,4.0,-999.0,46,0.00,,,-99.99,,2013-01-12 07:32:00,
2013-01-11 23:42:00,45.0,25.0,30.14,NNW,340,4.0,-999.0,46,0.00,,,-99.99,,2013-01-12 07:42:00,